Kitty C — 2EIQ6 — position and weather

sailwx.info

Track history (hours):
 
Tides and Currents Weather Stations Pressure Air Temp Water Temp Dewpoint Dewpoint Depression Visibility Wind Speed Wind Dir Waves Ship Positions

Kitty C

Last reported at 2014-Oct-25 12:16 UTC. Time now 2014-Oct-25 14:30 UTC.
Position N 35°55' W 005°16'.

Length 106 m; draft 6.6 m.

Type: Cargo ship. MMSI: 235085464.

Date/timePositionNaut miles runAvg speedWind from/ knotsBaromVisibWave heightAir tempDewpointWater temp
2014-Oct-25 12:16N 35°55' W 005°16'3 3.7
2014-Oct-25 11:33N 35°54' W 005°19'0 0.0
2014-Oct-25 10:33N 35°54' W 005°19'0 0.0
2014-Oct-25 09:33N 35°54' W 005°19'0 0.0
2014-Oct-25 08:33N 35°54' W 005°19'0 0.0
2014-Oct-25 07:33N 35°54' W 005°19'0 0.0
2014-Oct-25 06:33N 35°54' W 005°19'1 0.7
2014-Oct-25 05:33N 35°54' W 005°19'2 2.0
2014-Oct-25 04:34N 35°56' W 005°20'101 8.4
2014-Oct-24 16:30N 36°09' W 007°25'63 8.6
2014-Oct-24 09:05N 36°25' W 008°41'5 8.8
2014-Oct-24 08:31N 36°27' W 008°47'9 8.8
2014-Oct-24 07:33N 36°29' W 008°57'12 8.9
2014-Oct-24 06:15N 36°32' W 009°11'25 9.3
2014-Oct-24 03:33N 36°49' W 009°34'10 9.4
2014-Oct-24 02:32N 36°58' W 009°37'4 4.1
2014-Oct-24 01:33N 37°02' W 009°38'1 0.5
2014-Oct-24 00:33N 37°02' W 009°38'1 0.5
2014-Oct-23 23:31N 37°03' W 009°38'1 0.6
2014-Oct-23 22:18N 37°03' W 009°37'5 4.8
2014-Oct-23 21:15N 37°08' W 009°39'710.1
2014-Oct-23 20:33N 37°15' W 009°41'1210.1
2014-Oct-23 19:24N 37°27' W 009°44'910.2
2014-Oct-23 18:33N 37°35' W 009°46'1010.5
2014-Oct-23 17:33N 37°45' W 009°49'1010.4
2014-Oct-23 16:33N 37°55' W 009°53'1010.2
2014-Oct-23 15:33N 38°05' W 009°55'1110.0
2014-Oct-23 14:26N 38°16' W 009°58'1910.0
2014-Oct-23 12:33N 38°35' W 010°03'1110.3
2014-Oct-23 11:32N 38°45' W 010°05'1210.2
2014-Oct-23 10:24N 38°57' W 010°04'1310.4
2014-Oct-23 09:06N 39°10' W 009°60'610.4
2014-Oct-23 08:33N 39°15' W 009°58'  
Track history (hours):
 
Tides and Currents Weather Stations Pressure Air Temp Water Temp Dewpoint Dewpoint Depression Visibility Wind Speed Wind Dir Waves Ship Positions

Kitty C

Last reported at 2014-Oct-25 12:16 UTC. Time now 2014-Oct-25 14:30 UTC.
Position N 35°55' W 005°16'.

Length 106 m; draft 6.6 m.

Type: Cargo ship. MMSI: 235085464.

Date/timePositionNaut miles runAvg speedWind from/ knotsBaromVisibWave heightAir tempDewpointWater temp
2014-Oct-25 12:16N 35°55' W 005°16'3 3.7
2014-Oct-25 11:33N 35°54' W 005°19'0 0.0
2014-Oct-25 10:33N 35°54' W 005°19'0 0.0
2014-Oct-25 09:33N 35°54' W 005°19'0 0.0
2014-Oct-25 08:33N 35°54' W 005°19'0 0.0
2014-Oct-25 07:33N 35°54' W 005°19'0 0.0
2014-Oct-25 06:33N 35°54' W 005°19'1 0.7
2014-Oct-25 05:33N 35°54' W 005°19'2 2.0
2014-Oct-25 04:34N 35°56' W 005°20'101 8.4
2014-Oct-24 16:30N 36°09' W 007°25'63 8.6
2014-Oct-24 09:05N 36°25' W 008°41'5 8.8
2014-Oct-24 08:31N 36°27' W 008°47'9 8.8
2014-Oct-24 07:33N 36°29' W 008°57'12 8.9
2014-Oct-24 06:15N 36°32' W 009°11'25 9.3
2014-Oct-24 03:33N 36°49' W 009°34'10 9.4
2014-Oct-24 02:32N 36°58' W 009°37'4 4.1
2014-Oct-24 01:33N 37°02' W 009°38'1 0.5
2014-Oct-24 00:33N 37°02' W 009°38'1 0.5
2014-Oct-23 23:31N 37°03' W 009°38'1 0.6
2014-Oct-23 22:18N 37°03' W 009°37'5 4.8
2014-Oct-23 21:15N 37°08' W 009°39'710.1
2014-Oct-23 20:33N 37°15' W 009°41'1210.1
2014-Oct-23 19:24N 37°27' W 009°44'910.2
2014-Oct-23 18:33N 37°35' W 009°46'1010.5
2014-Oct-23 17:33N 37°45' W 009°49'1010.4
2014-Oct-23 16:33N 37°55' W 009°53'1010.2
2014-Oct-23 15:33N 38°05' W 009°55'1110.0
2014-Oct-23 14:26N 38°16' W 009°58'1910.0
2014-Oct-23 12:33N 38°35' W 010°03'1110.3
2014-Oct-23 11:32N 38°45' W 010°05'1210.2
2014-Oct-23 10:24N 38°57' W 010°04'1310.4
2014-Oct-23 09:06N 39°10' W 009°60'610.4
2014-Oct-23 08:33N 39°15' W 009°58'  

Dump ship's entire track history